Regional Weather Roundup
Issued by NWS Charleston, WV

Home | Current Version | Previous Version | Graphics & Text | Print | Product List | Glossary On
Versions: 1 2 3 4 5 6 7 8 9 10 11 12 13 14 15 16 17 18 19 20 21 22 23 24 25 26 27 28 29 30 31 32 33 34 35 36 37 38 39 40 41 42 43 44 45 46 47 48 49 50
000
ASUS41 KRLX 191110
RWRRLX
West Virginia Regional Weather Roundup
National Weather Service Charleston WV
700 AM EDT THU APR 19 2018

Note: "fair" indicates few or no clouds below 12,000 feet with no
significant weather and/or obstructions to visibility.

WVZ003-191200-
Northern Panhandle of West Virginia

CITY           SKY/WX    TMP DP  RH WIND       PRES   REMARKS
WHEELING       LGT RAIN  38  36  92 NW13G21   29.78R FOG
$$

WVZ009-191200-
Northwest West Virginia

CITY           SKY/WX    TMP DP  RH WIND       PRES   REMARKS
PARKERSBURG    CLOUDY    42  32  67 W17G30    29.89R
$$

WVZ006-191200-
Western West Virginia

CITY           SKY/WX    TMP DP  RH WIND       PRES   REMARKS
HUNTINGTON     CLOUDY    45  31  58 W13G22    29.92R
$$

WVZ015-191200-
West Central West Virginia

CITY           SKY/WX    TMP DP  RH WIND       PRES   REMARKS
CHARLESTON     CLOUDY    47  35  63 W18G29    29.87R
$$

WVZ022-031-191200-
North Central West Virginia

CITY           SKY/WX    TMP DP  RH WIND       PRES   REMARKS
CLARKSBURG     LGT RAIN  48  42  80 W10G22    29.77R
MORGANTOWN     CLOUDY    46  44  93 SW6       29.75R
$$

WVZ025-035-042-045-191200-
Southern West Virginia

CITY           SKY/WX    TMP DP  RH WIND       PRES   REMARKS
BECKLEY        CLOUDY    42  40  92 W12       29.84R
LOGAN          CLOUDY    45  39  81 VRB6G15   29.87R
BLUEFIELD      LGT RAIN  42  41  96 NW13G26   29.84R FOG
LEWISBURG      CLOUDY    47  43  85 NW8       29.80R
$$

WVZ047-191200-
Northern Mountains of West Virginia

CITY           SKY/WX    TMP DP  RH WIND       PRES   REMARKS
ELKINS         CLOUDY    46  39  76 W9G18     29.78R
$$

WVZ052-191200-
Eastern Panhandle of West Virginia

CITY           SKY/WX    TMP DP  RH WIND       PRES   REMARKS
MARTINSBURG    CLOUDY    46  44  93 W7        29.68R
PETERSBURG     CLOUDY    47  44  88 W5        29.72R
$$



USA.gov is the U.S. government's official web portal to all federal, state and local government web resources and services.